Location: Poughquag
(41.6090°N, 73.6820°W)
Time: 14:58:40
(UTC-04:00)

Explorer 11/Cluster Stage 4 - Pass Details

Date: 05 June 2020
Orbit: 467 x 1259 km, 28.8° (Epoch: 05 July)

Event Time Altitude Azimuth Distance (km) Brightness Sun altitude
Rises 06:02:12 0° 238° (WSW) 3,114 9.0 5.9°
Reaches altitude 10° 06:04:52 10° 224° (SW) 2,328 8.5 6.3°
Maximum altitude 06:09:15 24° 172° (S) 1,762 8.3 7.1°
Drops below altitude 10° 06:14:24 10° 122° (ESE) 2,779 10.0 8.0°
Sets 06:17:54 0° 110° (ESE) 3,873 10.9 8.6°
